Regional Weather Roundup
Issued by NWS

Home | Current Version | Previous Version | Graphics & Text | Print | Product List | Glossary On
Versions: 1 2 3 4 5 6 7 8 9 10 11 12 13 14 15 16 17 18 19 20 21 22 23 24 25 26 27 28 29 30 31 32 33 34 35 36 37 38 39 40 41 42 43 44 45 46 47 48 49 50
000
ASUS43 KLOT 311421
RWRIL

ILLINOIS REGIONAL WEATHER ROUNDUP
NATIONAL WEATHER SERVICE CHICAGO/ROMEOVILLE IL
900 AM CDT MON AUG 31 2015

NOTE: "FAIR" INDICATES FEW OR NO CLOUDS BELOW 12,000 FEET WITH NO
SIGNIFICANT WEATHER AND/OR OBSTRUCTIONS TO VISIBILITY.

* THESE STATIONS ARE NOT UNDER NWS QUALITY CONTROL. THEY ALSO MAY NOT
  REPORT WEATHER SUCH AS PRECIPITATION OR FOG.

ILZ001-002-007-009-015-016-024-311500-
NORTHWEST ILLINOIS

CITY           SKY/WX    TMP DP  RH WIND       PRES   REMARKS
MOLINE         SUNNY     69  65  86 E5        30.04F FOG
STERLING*        N/A    N/A N/A N/A MISG        N/A
SAVANNA*       SUNNY     67  65  95 CALM      30.06S FOG
$$

ILZ003-004-008-010-011-017-018-311500-
NORTH CENTRAL ILLINOIS

CITY           SKY/WX    TMP DP  RH WIND       PRES   REMARKS
ROCKFORD       SUNNY     67  63  87 CALM      30.09R FOG
FREEPORT*      SUNNY     66  65  99 CALM      30.09S FOG
ROCHELLE*      SUNNY     67  65  93 CALM      30.08S FOG
DE KALB*       SUNNY     69  67  94 CALM      30.09S FOG
PERU*          SUNNY     70  66  88 SE3       30.08S FOG
$$

ILZ005-006-012>014-019>023-311500-
NORTHEAST ILLINOIS

CITY           SKY/WX    TMP DP  RH WIND       PRES   REMARKS
CHICAGO-OHARE  MOSUNNY   70  66  87 CALM      30.07F FOG
CHICAGO-MIDWAY SUNNY     72  66  81 CALM      30.07S HAZE
AURORA         CLOUDY    67  65  93 CALM      30.09R FOG
LANSING*       MOSUNNY   69  69 100 S3        30.09R FOG
JOLIET*        SUNNY     71  68  89 CALM      30.08S FOG
WAUKEGAN       SUNNY     66  65  96 SW3       30.07S FOG
DUPAGE AIRPORT SUNNY     68  64  87 CALM      30.08R FOG
KANKAKEE*      FOG       68  68 100 CALM      30.09S VSB 1/2
WHEELING       SUNNY     65  63  93 CALM      30.09R FOG
MORRIS*        PTSUNNY   67  67  98 CALM      30.07S FOG
ROMEOVILLE*    SUNNY     69  69 100 CALM      30.08S FOG
NORTHERLY ISL    N/A     72  65  78 CALM        N/A
$$

LMZ740>746-311500-
SOUTHERN LAKE MICHIGAN

STATION/POSITION SKY/WX   TEMP    WIND        PRES    VSBY  WAVE
                          AIR SEA DIR/SP/G                  HT/PER
                          (F)     (DEG/KT/KT) (MB)    (MI)  (FT/S)
SOUTHERN BUOY              68 68  220/  4/  4 1018.2R         0
WILMETTE HARBOR            59 59   40/  2/  2   N/A           0
HARRISON CRIB              68     300/  4/  4   N/A
BURNHAM HARBOR             69     260/  2/  5   N/A
BURNS HARBOR               68     270/  2/  5 1019.0
MICHIGAN CITY              67     180/  3/  3   N/A
MICHIGAN CITY 6N           70 71  270/  2/  4   N/A           0
ST. JOSEPH                 69 71  190/  2/  2   N/A           0
$$

ILZ025>027-034>036-040-047-049-050-058-095>099-311500-
WEST-CENTRAL ILLINOIS

CITY           SKY/WX    TMP DP  RH WIND       PRES   REMARKS
QUINCY         SUNNY     77  72  84 S5        30.05R
GALESBURG*     SUNNY     71  68  91 CALM      30.06S FOG
MACOMB*        SUNNY     70  70 100 SE3       30.08S FOG
JACKSONVILLE*  SUNNY     78  73  84 S6        30.06F HX  81
PITTSFIELD*    SUNNY     76  71  85 S3        30.07S
$$

ILZ028>032-037-038-041>044-048-051>054-059>061-311500-
CENTRAL ILLINOIS

CITY           SKY/WX    TMP DP  RH WIND       PRES   REMARKS
PONTIAC        SUNNY     72  71  97 CALM      30.09S FOG
BLOOMINGTON    FOG       72  72 100 S7        30.09S VSB 1
DECATUR        SUNNY     75  69  81 W6        30.08S
PEORIA         SUNNY     76  69  79 S3        30.06S HAZE
LACON*         SUNNY     70  67  90 CALM      30.06S FOG
LINCOLN*       CLOUDY    72  71  96 S5        30.07S FOG
SPRINGFIELD    SUNNY     77  72  84 S9        30.07R
TAYLORVILLE    SUNNY     73  72  94 SW5       30.08S
$$

ILZ033-039-045-046-055>057-062-063-311500-
EAST-CENTRAL ILLINOIS

CITY           SKY/WX    TMP DP  RH WIND       PRES   REMARKS
CHAMPAIGN      SUNNY     75  70  84 S6        30.10R
RANTOUL*       SUNNY     74  71  89 S3        30.10R FOG
MATTOON        PTSUNNY   71  67  87 SE10      30.10R
PARIS*         MOSUNNY   76  72  87 SW7       30.11R
$$

ILZ079-100>102-311500-
SOUTHWEST ILLINOIS

CITY           SKY/WX    TMP DP  RH WIND       PRES   REMARKS
BELLEVILLE     PTSUNNY   74  74 100 VRB2      30.08R
CAHOKIA*       SUNNY     78  69  73 S8        30.07S HX  80
SPARTA*        CLOUDY    73  69  89 S8        30.11S
$$

ILZ064>066-069>071-074>076-080>082-084>086-088>090-092>094-311500-
SOUTH-CENTRAL ILLINOIS

CITY           SKY/WX    TMP DP  RH WIND       PRES   REMARKS
CARBONDALE     MOSUNNY   75  69  81 SW12      30.11R
CAIRO*         SUNNY     73  71  92 SW3       30.12S
EFFINGHAM*     CLOUDY    70  68  92 E5        30.12R FOG
MARION         MOSUNNY   75  70  83 SW6       30.12S
MT. VERNON     CLOUDY    75  66  73 S10       30.12R
SALEM*         CLOUDY    73  69  89 CALM      30.11R
METROPOLIS*    SUNNY     73  70  91 S7        30.14R
$$

ILZ067-068-072-073-078-083-087-091-311500-
SOUTHEAST ILLINOIS

CITY           SKY/WX    TMP DP  RH WIND       PRES   REMARKS
LAWRENCEVILLE  CLOUDY    74  69  85 S8        30.13R
FLORA*         SUNNY     74  68  80 SW7       30.12R
FAIRFIELD*     SUNNY     74  69  83 S7        30.11R
HARRISBURG*    SUNNY     74  68  82 S6        30.12S
ROBINSON*      PTSUNNY   73  68  85 S8        30.14R
CARMI*         SUNNY     73  70  89 S6        30.12R
$$

ABBREVIATIONS USED IN REMARKS
   TC - TEMPERATURE IN CELSIUS
  WCI - WIND CHILL INDEX
   HX - HEAT INDEX
  VSB - VISIBILITY
$$



USA.gov is the U.S. government's official web portal to all federal, state and local government web resources and services.